Tracking 29892 objects as of 21-Nov-2024
HD Live streaming from Space Station
objects crossing your sky now

DELTA 1 DEB

Track DELTA 1 DEB now!
10-day predictions


NORAD ID: 7907
Int'l Code: 1972-058BS
Perigee: 678.0 km
Apogee: 1,074.8 km
Inclination: 97.7 °
Period: 102.3 minutes
Semi major axis: 7247 km
RCS: 0.1507 m2 (medium)
Launch date: July 23, 1972
Source: United States (US)
Launch site: AIR FORCE WESTERN TEST RANGE (AFWTR)

Note: This is SATELLITE DEBRIS
Your satellite tracking list
Your tracking list is empty




NASA's NSSDC Master Catalog

Two Line Element Set (TLE):
1 07907U 72058BS  24325.09806621  .00000972  00000-0  42740-3 0  9991
2 07907  97.6928 186.9135 0273735  98.3894 264.8407 14.07112109498757
Source of the keplerian elements: AFSPC